Weather History for Palma de Mallorca, Spain

Change the Weather History Date:

Monday, May 5, 2014

  Actual Average Record
Temperature  
Mean Temperature 58 °F -  
Max Temperature 70 °F 74 °F 77 °F (1999)
Min Temperature 46 °F 54 °F 42 °F (2002)
Degree Days  
Heating Degree Days 7    
Growing Degree Days 8 (Base 50)    
Moisture  
Dew Point 50 °F    
Average Humidity 69    
Maximum Humidity 94    
Minimum Humidity 37    
Precipitation  
Precipitation 0.00 in 0.04 in - ()
Sea Level Pressure  
Sea Level Pressure 30.04 in    
Wind  
Wind Speed 4 mph ()    
Max Wind Speed 16 mph    
Max Gust Speed -    
Visibility 7.9 miles    
Events      
Averages and records for this station are not official NWS values.
T = Trace of Precipitation, MM = Missing Value Source: Averaged Metar Reports

Daily Weather History Graph

Daily Weather History Graph

Search for Another Location

Airport:

Trip Planner

Search our weather history database for the weather conditions in past years. The results will help you decide how hot, cold, wet, or windy it might be!

Date:

Astronomy

May. 05, 2014 Rise Set
Actual Time 6:45 AM CEST 8:46 PM CEST
Civil Twilight 6:16 AM CEST 9:16 PM CEST
Nautical Twilight 5:40 AM CEST 9:52 PM CEST
Astronomical Twilight 5:01 AM CEST 10:31 PM CEST
Moon 11:50 AM CEST (5/5) 1:21 AM CEST (5/5)
Length of Visible Light 15h 00m
Length of Day
14h 01m
Waxing Crescent, 34% of the Moon is Illuminated
May 5
Waxing Crescent
May 7
First Quarter
May 14
Full
May 21
Last Quarter
May 28
New

Hourly Weather History & Observations

Time (CEST) Temp. Dew Point Humidity Pressure Visibility Wind Dir Wind Speed Gust Speed Precip Events Conditions
12:00 AM 57 °F 51 °F 75% 30.03 in - ENE 2.3 mph - -  
12:00 AM 57.2 °F 51.8 °F 82% 30.01 in 6.2 mi Variable 1.2 mph - N/A   Partly Cloudy
12:30 AM 55.4 °F 50.0 °F 82% 30.01 in 6.2 mi Calm Calm - N/A   Partly Cloudy
1:00 AM 54 °F 50 °F 81% 30.03 in - Calm Calm - -  
1:00 AM 55.4 °F 50.0 °F 82% 30.01 in 6.2 mi ENE 3.5 mph - N/A   Partly Cloudy
1:30 AM 53.6 °F 50.0 °F 88% 30.04 in 6.2 mi North 1.2 mph - N/A   Mostly Cloudy
2:00 AM 53 °F 49 °F 80% 30.03 in 11 mi East 2.3 mph - -   Partly Cloudy
2:00 AM 53.6 °F 50.0 °F 88% 30.01 in 6.2 mi NE 2.3 mph - N/A   Scattered Clouds
2:30 AM 51.8 °F 48.2 °F 88% 30.01 in 6.2 mi NE 2.3 mph - N/A   Partly Cloudy
3:00 AM 51 °F 48 °F 86% 30.02 in - Calm Calm - -  
3:00 AM 51.8 °F 48.2 °F 88% 30.01 in 6.2 mi ENE 1.2 mph - N/A   Partly Cloudy
3:30 AM 50.0 °F 48.2 °F 94% 30.01 in 6.2 mi Calm Calm - N/A   Partly Cloudy
4:00 AM 51 °F 49 °F 88% 30.02 in - ENE 2.3 mph - -  
4:00 AM 50.0 °F 48.2 °F 94% 30.01 in 6.2 mi Calm Calm - N/A   Partly Cloudy
4:30 AM 50.0 °F 48.2 °F 94% 30.01 in 6.2 mi Calm Calm - N/A   Partly Cloudy
5:00 AM 48 °F 45 °F 87% 30.02 in 11 mi ENE 2.3 mph - -   Scattered Clouds
5:00 AM 48.2 °F 46.4 °F 93% 30.01 in 6.2 mi Calm Calm - N/A   Partly Cloudy
5:30 AM 48.2 °F 46.4 °F 93% 30.01 in 6.2 mi ENE 1.2 mph - N/A   Partly Cloudy
6:00 AM 47 °F 45 °F 88% 30.04 in - Calm Calm - -  
6:00 AM 48.2 °F 44.6 °F 87% 30.01 in 6.2 mi East 2.3 mph - N/A   Partly Cloudy
6:30 AM 46.4 °F 44.6 °F 93% 30.04 in - ENE 1.2 mph - N/A   Clear
7:00 AM 47 °F 45 °F 92% 30.05 in - Calm Calm - -  
7:00 AM 46.4 °F 44.6 °F 93% 30.04 in - Calm Calm - N/A   Clear
7:30 AM 48.2 °F 46.4 °F 93% 30.04 in - Calm Calm - N/A   Clear
8:00 AM 53 °F 49 °F 83% 30.06 in 12 mi Calm Calm - -   Clear
8:00 AM 51.8 °F 50.0 °F 94% 30.04 in - Calm Calm - N/A   Clear
8:30 AM 55.4 °F 51.8 °F 88% 30.04 in - North 1.2 mph - N/A   Clear
9:00 AM 61 °F 53 °F 68% 30.06 in - Calm Calm - -  
9:00 AM 60.8 °F 55.4 °F 82% 30.06 in - Calm Calm - N/A   Clear
9:30 AM 64.4 °F 53.6 °F 68% 30.06 in 6.2 mi Calm Calm - N/A   Partly Cloudy
10:00 AM 67 °F 50 °F 43% 30.06 in - ENE 2.3 mph - -  
10:00 AM 66.2 °F 51.8 °F 60% 30.06 in 6.2 mi Calm Calm - N/A   Partly Cloudy
10:30 AM 66.2 °F 51.8 °F 60% 30.06 in 6.2 mi Calm Calm - N/A   Partly Cloudy
11:00 AM 69 °F 51 °F 42% 30.06 in 19 mi South 4.6 mph - -   Scattered Clouds
11:00 AM 68.0 °F 51.8 °F 56% 30.06 in 6.2 mi ESE 1.2 mph - N/A   Partly Cloudy
11:30 AM 68.0 °F 51.8 °F 56% 30.06 in 6.2 mi SW 6.9 mph - N/A   Partly Cloudy
12:00 PM 70 °F 51 °F 40% 30.06 in - SW 10.4 mph - -  
12:00 PM 68.0 °F 51.8 °F 56% 30.06 in 6.2 mi WSW 9.2 mph - N/A   Partly Cloudy
12:30 PM 68.0 °F 50.0 °F 52% 30.04 in 6.2 mi WSW 11.5 mph - N/A   Partly Cloudy
1:00 PM 70 °F 51 °F 41% 30.06 in - SW 13.8 mph - -  
1:00 PM 68.0 °F 53.6 °F 60% 30.04 in 6.2 mi WSW 12.7 mph - N/A   Partly Cloudy
1:30 PM 68.0 °F 50.0 °F 52% 30.04 in 6.2 mi SW 13.8 mph - N/A   Partly Cloudy
2:00 PM 70 °F 50 °F 37% 30.06 in 19 mi SW 16.1 mph - -   Scattered Clouds
2:00 PM 68.0 °F 50.0 °F 52% 30.06 in 6.2 mi SW 15.0 mph - N/A   Partly Cloudy
2:30 PM 68.0 °F 51.8 °F 56% 30.06 in 6.2 mi SW 15.0 mph - N/A   Partly Cloudy
3:00 PM 71 °F 50 °F 37% 30.06 in - SW 16.1 mph - -  
3:00 PM 68.0 °F 51.8 °F 56% 30.06 in 6.2 mi SW 13.8 mph - N/A   Partly Cloudy
3:30 PM 68.0 °F 51.8 °F 56% 30.06 in 6.2 mi SW 15.0 mph - N/A   Partly Cloudy
4:00 PM 70 °F 51 °F 39% 30.06 in - SW 15.0 mph - -  
4:00 PM 68.0 °F 51.8 °F 56% 30.04 in 6.2 mi WSW 13.8 mph - N/A   Partly Cloudy
4:30 PM 68.0 °F 51.8 °F 56% 30.04 in 6.2 mi WSW 13.8 mph - N/A   Partly Cloudy
5:00 PM 69 °F 50 °F 40% 30.06 in 19 mi SW 12.7 mph - -   Scattered Clouds
5:00 PM 68.0 °F 50.0 °F 52% 30.04 in 6.2 mi WSW 12.7 mph - N/A   Partly Cloudy
5:30 PM 66.2 °F 50.0 °F 56% 30.04 in 6.2 mi SW 11.5 mph - N/A   Partly Cloudy
6:00 PM 68 °F 50 °F 43% 30.05 in - WSW 10.4 mph - -  
6:00 PM 66.2 °F 51.8 °F 60% 30.04 in 6.2 mi WSW 10.4 mph - N/A   Partly Cloudy
6:30 PM 66.2 °F 51.8 °F 60% 30.04 in 6.2 mi SW 8.1 mph - N/A   Partly Cloudy
7:00 PM 67 °F 51 °F 47% 30.03 in - WSW 8.1 mph - -  
7:00 PM 66.2 °F 51.8 °F 60% 30.01 in 6.2 mi WSW 6.9 mph - N/A   Partly Cloudy
7:30 PM 64.4 °F 51.8 °F 64% 30.01 in 6.2 mi WSW 8.1 mph - N/A   Partly Cloudy
8:00 PM 65 °F 52 °F 52% 30.04 in 19 mi WSW 5.8 mph - -   Clear
8:00 PM 64.4 °F 51.8 °F 64% 30.04 in - West 5.8 mph - N/A   Clear
8:30 PM 62.6 °F 51.8 °F 68% 30.04 in - WSW 4.6 mph - N/A   Clear
9:00 PM 61 °F 51 °F 62% 30.05 in - West 2.3 mph - -  
9:00 PM 60.8 °F 51.8 °F 72% 30.04 in - Variable 2.3 mph - N/A   Clear
9:30 PM 60.8 °F 51.8 °F 72% 30.04 in - WNW 3.5 mph - N/A   Clear
10:00 PM 59 °F 52 °F 69% 30.07 in - West 3.5 mph - -  
10:00 PM 60.8 °F 51.8 °F 72% 30.06 in - Variable 1.2 mph - N/A   Clear
10:30 PM 59.0 °F 51.8 °F 77% 30.06 in - Variable 1.2 mph - N/A   Clear
11:00 PM 58 °F 51 °F 71% 30.08 in 12 mi SSE 1.2 mph - -   Clear
11:00 PM 59.0 °F 51.8 °F 77% 30.06 in - Variable 1.2 mph - N/A   Clear
11:30 PM 57.2 °F 50.0 °F 77% 30.06 in - East 1.2 mph - N/A   Clear